Tracking 19562 objects as of 24-Mar-2019
HD Live streaming from Space Station
objects crossing your sky now

MOLNIYA 3-8

Track MOLNIYA 3-8 now!
MOLNIYA 3-8 is classified as:


NORAD ID: 10455
Int'l Code: 1977-105A
Perigee: 1,180.4 km
Apogee: 39,197.0 km
Inclination: 62.1 °
Period: 718.0 minutes
Semi major axis: 26559 km
RCS: 13.5006 m2 (large)
Launch date: October 28, 1977
Source: Commonwealth of Independent States (former USSR) (CIS)
Launch site: PLESETSK MISSILE AND SPACE COMPLEX (PKMTR)
aabbcc
Your satellite tracking list
Your tracking list is empty




NASA's NSSDC Master Catalog

Two Line Element Set (TLE):
1 10455U 77105A   19081.72048253 -.00001004 +00000-0 +21821-2 0  9997
2 10455 062.1426 173.5290 7156808 273.1942 014.6457 02.00570911303411
Source of the keplerian elements: AFSPC